{"data":{"norad_id":68638,"intl_designator":"2026-075C","name":"QIANFAN-111","alt_names":[],"object_type":"PAYLOAD","status":"ACTIVE","operator":null,"country":"PRC","launch_date":"2026-04-07","launch_site_code":"WSC","launch_vehicle":null,"mission":null,"orbit_class":"UNKNOWN","rcs_meters":null,"size_class":null,"mass_kg":null,"dimensions":null,"purposes":[],"wikipedia_slug":null,"has_3d_model":false,"image_url":null,"decayed_at":null,"tle_current":{"epoch":"2026-05-24T18:05:51.498528Z","epoch_age_seconds":99791,"freshness":"FRESH","line1":"1 68638U 26075C   26144.75406827  .00000051  00000+0  41547-4 0  9997","line2":"2 68638  88.9881 323.4131 0011046  77.0057 283.2340 13.73113721  6636","mean_motion":13.73113721,"eccentricity":0.0011046,"inclination_deg":88.9881,"raan_deg":323.4131,"arg_perigee_deg":77.0057,"mean_anomaly_deg":283.234,"bstar":4.1547e-5,"rev_number":663,"period_min":104.87113907443,"perigee_km":980.27640204702,"apogee_km":996.55058539775,"semimajor_km":7366.5504937224,"source":"CELESTRAK","updated_at":"2026-05-25T13:38:07.990033Z"}}}